Cedar City, UT

3:54 AM MDT on October 23, 2017 (GMT -0600)
Cedar City Regional

Weather History for KCDC - January, 2014

Change the Weather History Date:

Saturday, January 4, 2014

  Actual Average Record
Temperature  
Mean Temperature 25 °F 28 °F  
Max Temperature 36 °F 41 °F 62 °F (1956)
Min Temperature 14 °F 16 °F -16 °F (1949)
Degree Days  
Heating Degree Days 40 37  
Month to date heating degree days 138 148  
Since 1 July heating degree days 2993 2710  
Cooling Degree Days 0 0  
Month to date cooling degree days 0 0  
Year to date cooling degree days 0 0  
Moisture  
Dew Point 13 °F    
Average Humidity 59    
Maximum Humidity 81    
Minimum Humidity 36    
Precipitation  
Precipitation 0.00 in 0.03 in 0.45 in (2007)
Month to date precipitation 0.00 0.12  
Year to date precipitation 0.00 0.12  
Sea Level Pressure  
Sea Level Pressure 30.07 in    
Wind  
Wind Speed 8 mph (NNE)    
Max Wind Speed 21 mph    
Max Gust Speed 27 mph    
Visibility 10 miles    
Events      
T = Trace of Precipitation, MM = Missing Value Source: NWS Daily Summary

Daily Weather History Graph

Daily Weather History Graph

Search for Another Location

Airport or City:

Trip Planner

Search our weather history database for the weather conditions in past years. The results will help you decide how hot, cold, wet, or windy it might be!

Date:

Astronomy

Jan. 04, 2014 Rise Set
Actual Time 7:47 AM MST 5:27 PM MST
Civil Twilight 7:18 AM MST 5:56 PM MST
Nautical Twilight 6:46 AM MST 6:28 PM MST
Astronomical Twilight 6:14 AM MST 7:00 PM MST
Moon 10:00 AM MST (1/4) 9:46 PM MST (1/4)
Length of Visible Light 10h 37m
Length of Day
9h 39m
Waxing Crescent, 16% of the Moon is Illuminated
Jan 4
Waxing Crescent
Jan 7
First Quarter
Jan 15
Full
Jan 23
Last Quarter
Jan 30
New

Hourly Weather History & Observations

Time (MST) Temp. Windchill Dew Point Humidity Pressure Visibility Wind Dir Wind Speed Gust Speed Precip Events Conditions
12:53 AM 35.1 °F 27.4 °F 17.1 °F 48% 29.86 in 10.0 mi SSW 10.4 mph - N/A   Clear
1:53 AM 28.0 °F 22.8 °F 19.9 °F 72% 29.86 in 10.0 mi South 4.6 mph - N/A   Clear
2:53 AM 30.0 °F 23.2 °F 19.0 °F 64% 29.87 in 10.0 mi SW 6.9 mph - N/A   Clear
3:53 AM 30.9 °F 24.3 °F 18.0 °F 59% 29.86 in 10.0 mi South 6.9 mph - N/A   Clear
4:53 AM 28.9 °F 22.8 °F 18.0 °F 64% 29.88 in 10.0 mi Variable 5.8 mph - N/A   Clear
5:53 AM 28.0 °F 22.8 °F 18.0 °F 66% 29.92 in 10.0 mi South 4.6 mph - N/A   Clear
6:53 AM 30.0 °F - 18.0 °F 61% 29.94 in 10.0 mi North - - N/A   Clear
7:53 AM 25.0 °F 18.1 °F 18.0 °F 75% 30.02 in 10.0 mi West 5.8 mph - N/A   Clear
8:53 AM 27.0 °F - 21.0 °F 78% 30.08 in 6.0 mi Calm Calm - N/A   Haze
9:53 AM 28.9 °F - 21.0 °F 72% 30.09 in 6.0 mi Calm Calm - N/A   Haze
10:53 AM 32.0 °F 26.4 °F 19.9 °F 61% 30.11 in 9.0 mi ENE 5.8 mph - N/A   Clear
11:53 AM 34.0 °F 26.6 °F 19.0 °F 54% 30.08 in 10.0 mi North 9.2 mph - N/A   Clear
12:53 PM 35.1 °F 25.9 °F 16.0 °F 46% 30.07 in 10.0 mi North 13.8 mph 17.3 mph N/A   Clear
1:53 PM 34.0 °F 23.0 °F 14.0 °F 44% 30.10 in 10.0 mi NE 18.4 mph 24.2 mph N/A   Clear
2:53 PM 33.1 °F 22.2 °F 10.9 °F 40% 30.11 in 10.0 mi NNE 17.3 mph 23.0 mph N/A   Clear
3:53 PM 33.1 °F 23.9 °F 10.0 °F 38% 30.13 in 10.0 mi NNE 12.7 mph 21.9 mph N/A   Clear
4:53 PM 30.9 °F 22.2 °F 8.1 °F 38% 30.16 in 10.0 mi NNE 10.4 mph 21.9 mph N/A   Clear
5:53 PM 27.0 °F 15.6 °F 3.0 °F 36% 30.19 in 10.0 mi NE 13.8 mph 21.9 mph N/A   Clear
6:53 PM 25.0 °F 15.5 °F 3.9 °F 41% 30.20 in 10.0 mi NNE 9.2 mph - N/A   Clear
7:53 PM 24.1 °F 16.0 °F 1.0 °F 37% 30.22 in 10.0 mi NNE 6.9 mph - N/A   Clear
8:53 PM 19.0 °F 10.0 °F 6.1 °F 57% 30.25 in 10.0 mi North 6.9 mph - N/A   Clear
9:53 PM 16.0 °F 10.4 °F 6.1 °F 65% 30.25 in 10.0 mi NNW 3.5 mph - N/A   Clear
10:53 PM 16.0 °F 8.8 °F 3.9 °F 59% 30.26 in 10.0 mi ENE 4.6 mph - N/A   Clear
11:53 PM 16.0 °F 8.8 °F 3.0 °F 57% 30.26 in 10.0 mi ENE 4.6 mph - N/A   Clear